Wind_Speed
23 24 24 23 22 21 19 19 19 19 19 19 21 22 21 21 20 20 20 19 18 18 18 18 18 18 18 17 15 14 13 14 13 12 11 10 10 10 10 9 6 3 2 4 5 5 5 7 7 7 8 8 7 8 8 7 7 7 7 6 6 7 7
20 21 23 24 23 22 20 18 17 18 16 16 18 20 22 22 21 21 20 19 19 18 17 17 17 17 17 17 17 17 16 15 14 13 13 13 11 11 11 11 9 5 3 4 6 6 6 7 7 6 8 9 8 8 8 7 7 7 7 6 6 6 6
17 18 20 22 23 23 22 19 17 16 14 15 17 18 20 22 22 22 21 20 19 18 16 17 17 16 16 15 15 16 16 16 15 12 12 12 11 11 11 11 10 7 5 5 5 6 7 8 7 6 8 9 7 7 8 7 7 7 6 5 5 5 5
17 16 17 19 21 23 23 21 17 15 13 14 16 16 17 19 20 21 21 20 19 18 18 18 18 17 16 15 15 15 15 15 15 13 12 11 10 10 10 10 10 9 7 5 5 6 7 7 7 6 7 8 7 7 8 8 8 7 7 7 6 6 5
19 17 16 17 18 21 22 21 18 15 13 13 14 15 15 16 17 18 19 19 18 17 17 18 18 17 17 16 16 16 15 14 14 13 13 12 11 10 9 8 9 9 8 6 6 5 6 7 7 6 7 9 10 8 8 9 8 7 8 8 8 8 8
19 18 16 15 16 18 19 19 17 14 11 11 13 13 14 14 15 15 16 17 17 17 16 16 16 16 16 17 17 16 15 14 13 13 12 12 11 11 9 8 8 9 8 6 6 6 6 7 7 7 8 11 11 8 8 11 10 9 9 10 10 10 10
18 17 16 14 14 16 18 18 18 13 8 9 11 11 12 14 14 14 15 15 16 16 16 15 15 15 15 16 15 15 15 14 13 12 12 12 11 11 10 8 7 8 7 7 7 6 6 6 7 7 8 11 12 8 7 11 12 10 10 11 11 11 10
18 16 15 14 12 13 16 18 20 15 7 6 12 12 12 14 14 14 14 14 15 16 16 15 15 15 14 13 13 12 12 13 13 12 11 11 11 11 10 8 7 7 6 7 7 6 6 7 6 7 8 10 12 10 9 11 11 10 10 10 10 9 7
16 15 15 14 11 11 13 17 23 19 7 6 12 13 14 16 16 16 16 15 15 15 16 16 14 14 13 11 11 10 9 10 11 11 11 11 12 11 10 9 8 7 7 6 6 6 7 7 7 8 10 10 11 10 10 11 10 9 10 10 10 7 5
16 15 14 14 12 11 12 16 22 21 10 7 11 12 15 16 16 17 17 15 15 14 14 16 14 13 12 11 10 9 8 8 9 10 10 10 11 11 10 9 7 7 7 6 6 6 7 7 7 9 10 10 11 11 11 11 11 10 11 11 9 5 3
16 15 14 13 12 10 11 14 20 20 13 10 10 11 15 16 15 16 15 14 14 11 10 13 14 14 13 12 11 10 9 9 9 10 10 10 9 8 8 9 8 6 7 6 5 6 6 7 8 9 10 10 12 12 11 11 11 11 10 9 8 6 5
16 15 14 13 11 9 9 10 17 19 14 10 10 11 15 17 16 15 14 14 14 12 11 12 12 12 13 13 11 10 10 11 10 11 13 12 10 8 6 7 8 8 8 7 5 5 6 7 8 8 8 11 13 12 12 11 10 9 9 9 9 9 9
14 14 14 13 12 10 8 6 11 18 17 12 11 11 16 17 16 15 14 14 14 13 13 12 10 11 13 13 11 9 11 12 10 12 16 14 11 9 5 4 5 6 7 8 7 5 6 8 9 8 9 11 13 12 11 10 7 7 9 9 9 11 13
14 13 13 13 13 11 10 7 6 13 18 14 10 11 16 17 15 15 14 13 13 12 12 12 11 10 12 14 12 9 11 13 10 12 16 14 9 8 7 5 4 3 6 9 9 7 8 9 9 10 11 12 13 12 10 9 9 9 10 10 12 14 16
12 13 13 13 14 13 12 10 8 8 14 16 12 11 17 17 15 15 14 12 13 12 10 11 11 11 12 14 14 10 9 11 12 14 15 13 9 7 8 7 7 6 7 10 10 8 9 10 10 12 13 13 13 12 10 11 11 11 12 13 14 14 13
11 12 12 12 13 14 14 13 11 9 11 15 14 14 16 14 12 14 14 11 12 11 9 10 11 11 13 14 15 12 9 10 13 14 15 13 9 8 9 9 10 9 8 9 9 9 10 12 13 14 14 13 13 12 12 13 13 12 12 14 14 13 11
9 9 12 13 13 14 15 15 15 13 12 14 17 18 15 10 8 11 11 10 11 11 9 11 12 12 13 14 15 13 11 12 14 14 14 13 11 11 11 11 13 14 12 12 13 13 14 15 16 17 17 16 16 15 14 14 12 11 12 12 12 11 10
7 7 9 12 13 14 16 17 17 16 14 14 17 18 15 9 7 9 8 7 9 10 9 12 13 12 12 13 14 13 12 14 15 13 12 11 10 11 11 10 12 15 16 18 19 18 18 18 18 18 19 18 18 18 17 15 13 12 11 12 12 12 12
8 8 7 10 13 14 15 17 18 17 16 15 16 17 14 9 8 9 8 6 8 10 10 12 13 11 10 11 12 13 13 15 16 13 9 6 7 9 9 8 11 15 19 22 24 24 23 22 20 19 18 17 17 17 17 16 15 13 10 12 13 12 12
10 11 10 10 12 14 15 16 18 18 17 16 16 16 15 11 8 9 9 7 8 10 11 10 10 9 9 11 13 13 13 14 16 13 6 3 6 8 8 9 12 16 19 22 24 24 24 23 22 21 20 18 17 16 15 14 13 11 10 11 13 13 12
12 12 12 9 10 12 14 15 16 17 18 17 16 15 15 13 9 10 10 9 8 10 10 9 9 9 12 14 14 13 13 15 15 10 4 5 8 8 7 11 15 16 18 19 20 19 18 17 18 18 17 16 15 15 14 13 12 12 12 12 12 12 14
13 12 11 10 10 11 13 14 15 16 16 17 16 15 14 13 12 12 12 10 9 9 9 9 8 9 12 14 14 14 14 14 14 10 7 8 9 8 11 14 14 14 15 16 15 15 15 14 14 13 13 13 12 11 11 13 13 13 14 14 13 12 13
12 10 10 11 11 10 10 12 13 15 16 16 16 15 14 13 13 13 12 11 10 10 9 9 9 10 13 14 14 14 12 12 11 11 10 10 11 12 15 15 13 12 14 14 14 14 14 12 12 11 11 10 10 11 12 14 15 14 14 14 14 14 14
11 10 10 11 12 11 10 9 10 13 16 17 17 16 15 14 14 13 12 12 12 10 9 9 11 13 14 13 12 11 11 11 12 12 13 14 15 17 16 13 12 13 13 13 13 13 12 11 10 10 10 10 12 14 15 16 15 14 12 12 13 13 14
12 11 12 13 12 12 11 10 8 10 13 16 17 16 16 15 14 13 12 12 12 11 11 12 12 12 11 11 10 11 12 12 13 14 16 17 18 19 16 13 13 14 13 12 12 11 9 10 9 8 9 12 14 14 14 12 11 11 10 9 10 11 11
12 12 13 13 12 12 11 10 9 9 10 11 12 12 13 14 13 13 11 10 11 11 11 11 10 10 11 12 12 13 14 15 16 18 18 18 17 17 14 12 11 11 10 10 10 9 8 9 8 7 9 11 12 11 10 9 9 9 9 8 8 9 9
13 13 13 13 12 12 11 10 10 9 8 8 9 10 12 12 12 11 10 9 9 9 9 9 9 11 13 15 15 15 16 16 17 17 16 14 14 13 13 12 10 9 9 8 8 7 8 8 8 8 9 10 10 10 10 9 8 9 9 9 9 10 10
13 12 12 12 12 12 12 12 11 9 8 10 12 14 14 13 11 11 10 10 10 11 10 10 11 12 13 13 14 14 13 13 13 13 12 13 12 12 12 11 10 8 8 7 6 6 8 8 8 9 10 10 11 11 11 10 9 9 10 11 10 10 10
14 14 13 12 12 12 12 12 11 10 12 16 17 17 16 15 14 13 13 13 14 14 13 11 11 11 11 11 13 13 12 11 11 11 11 11 10 8 7 7 6 6 6 6 6 7 8 8 9 9 10 11 11 11 12 11 11 11 12 12 11 11 11
16 16 16 15 15 13 13 14 15 17 20 20 19 17 17 16 16 16 16 16 16 15 13 11 11 11 11 11 12 13 12 11 11 10 10 9 8 6 6 6 5 5 5 5 6 7 8 8 9 10 10 11 11 12 12 12 12 12 12 12 12 13 12
15 16 16 17 17 16 16 17 19 20 21 19 18 17 17 17 17 17 16 16 16 13 11 11 11 12 12 11 12 13 13 12 10 9 9 9 7 6 6 6 5 4 5 6 7 8 8 8 9 9 10 11 11 12 13 13 13 12 12 12 12 13 13
14 14 14 16 16 17 17 18 19 19 19 19 18 18 17 17 17 17 16 15 14 12 11 11 12 12 13 12 12 13 13 12 10 9 9 8 8 8 7 6 5 7 9 9 8 8 9 9 9 9 10 10 11 12 12 13 13 13 12 12 13 13 13
16 17 16 16 17 17 18 19 20 19 19 19 18 17 17 17 18 17 15 13 11 11 11 11 12 12 13 13 13 13 13 12 10 8 8 8 8 8 8 7 9 13 13 10 8 9 9 9 9 9 10 11 11 11 11 12 13 13 13 12 13 13 13
18 19 20 19 18 18 19 19 19 19 18 18 17 17 17 17 18 17 15 13 12 12 11 12 12 13 13 13 13 13 13 11 9 8 8 8 8 8 8 8 10 12 11 8 8 9 9 9 9 9 9 11 11 11 11 11 12 12 12 12 12 12 12
15 17 21 23 21 19 18 18 17 18 19 18 18 17 16 16 16 14 11 11 11 11 11 12 13 14 14 14 14 12 11 10 9 8 8 8 8 8 8 8 9 9 8 8 9 9 9 9 9 8 9 10 10 10 11 12 12 11 11 11 11 11 12
14 17 22 24 22 19 17 17 17 17 18 18 18 17 15 14 14 11 9 9 10 10 11 12 13 14 13 13 11 10 9 8 8 8 8 9 9 9 9 8 8 8 8 8 8 8 8 9 9 8 8 9 10 11 11 11 11 10 10 10 10 11 12
Wind_Direction
38 39 42 44 46 45 38 31 30 37 41 42 45 49 50 53 56 57 58 58 61 63 61 60 61 61 60 59 58 54 51 51 47 41 40 39 37 41 41 34 19 1 40 32 23 32 29 15 15 13 3 357 352 349 346 344 339 333 327 319 310 301 291
37 39 43 44 44 43 41 33 24 25 30 32 35 40 42 45 49 50 51 53 54 55 57 57 57 57 57 58 58 55 54 50 45 40 41 40 36 33 33 33 26 13 12 12 14 24 26 21 26 24 7 0 358 356 355 352 348 344 339 333 324 316 308
40 40 43 45 44 43 43 39 27 20 26 31 31 32 35 38 42 44 44 45 46 47 52 53 51 50 51 54 56 53 50 48 41 34 34 36 34 30 28 28 28 23 8 356 1 13 19 19 26 29 17 10 8 5 5 7 9 8 5 2 350 331 318
43 42 45 46 45 43 43 42 36 26 24 29 30 29 30 33 36 39 41 42 41 41 45 47 45 44 46 48 51 49 45 44 40 30 26 26 24 24 21 20 26 27 12 350 346 2 12 10 17 25 19 16 19 14 13 20 28 28 24 24 19 4 350
38 40 45 49 47 45 43 42 40 35 28 26 29 28 28 29 31 34 38 40 41 40 42 44 43 41 42 43 44 42 40 39 36 29 23 20 17 16 13 10 19 21 14 2 344 345 357 1 8 15 7 12 18 13 6 10 20 24 16 13 16 13 4
34 34 39 47 50 50 47 43 40 39 32 24 26 29 27 28 29 30 32 36 39 40 41 43 42 39 38 39 37 35 33 33 34 30 23 18 14 10 7 5 9 8 7 5 351 341 348 355 4 8 357 358 7 10 3 360 360 2 1 358 0 2 358
32 32 33 37 44 46 45 42 37 39 44 26 22 30 32 30 28 27 28 29 32 37 39 40 41 39 37 36 34 30 28 26 27 26 18 13 12 8 4 1 1 2 1 358 352 346 349 352 357 3 356 351 357 3 5 3 358 350 353 355 353 352 347
28 30 32 32 36 39 40 38 31 32 50 29 19 28 34 32 30 25 24 24 24 27 33 36 39 41 39 37 34 32 31 27 24 21 13 9 11 9 4 1 359 359 359 357 353 347 348 349 349 355 355 354 1 2 356 0 356 338 337 343 344 345 338
23 26 29 29 33 37 40 36 29 30 48 33 21 28 30 27 26 21 17 18 17 17 21 24 29 34 36 37 37 36 37 36 33 27 16 10 11 9 4 2 1 360 358 353 354 353 349 345 345 354 355 353 1 358 342 342 343 331 329 332 332 336 334
20 22 24 24 28 36 42 39 34 36 49 42 24 23 25 22 19 16 12 10 10 8 9 12 15 19 22 26 33 34 33 36 36 31 22 14 13 13 10 5 0 3 3 354 349 352 349 345 342 349 351 344 342 343 337 338 339 331 330 332 332 331 337
14 17 19 20 22 30 40 41 38 37 40 42 26 10 15 18 11 10 10 6 6 2 358 1 3 6 10 14 23 27 24 23 21 17 13 8 7 13 18 17 11 4 2 357 352 351 350 349 340 339 343 338 333 334 333 333 332 329 331 337 337 325 319
9 9 13 15 16 22 30 38 42 34 26 41 43 9 360 4 2 3 4 360 359 356 353 354 353 357 3 8 17 23 19 18 13 5 2 1 360 0 13 28 29 20 10 0 352 353 359 358 348 342 346 345 337 331 326 323 322 325 331 332 329 318 309
6 4 6 7 8 14 11 14 39 30 14 24 45 13 349 349 354 356 354 351 350 348 349 350 347 348 353 0 12 21 22 23 12 353 352 356 1 4 6 21 32 36 30 17 5 3 6 6 4 358 353 352 350 342 335 334 330 327 327 320 313 311 309
2 0 0 359 357 1 357 344 5 16 6 9 31 15 350 345 345 346 347 347 342 337 340 343 344 343 342 348 358 8 17 18 360 339 344 350 359 8 8 1 359 23 31 18 12 7 358 355 357 353 344 346 352 349 342 341 333 322 316 307 302 301 302
355 354 353 352 348 346 346 341 336 345 353 359 8 3 352 349 343 338 340 341 334 330 332 335 338 339 333 335 342 347 2 5 346 333 339 344 346 353 353 344 341 350 4 4 2 354 342 334 333 337 336 335 341 341 331 322 317 311 304 300 298 296 295
346 346 344 343 340 337 335 336 335 326 334 346 350 347 349 352 345 335 334 333 328 326 327 327 330 330 325 324 328 329 336 348 339 330 335 337 332 333 334 324 317 318 328 337 332 318 315 314 314 316 315 316 325 328 321 316 311 307 306 302 298 296 296
335 334 335 333 333 332 330 330 333 329 326 337 343 341 343 351 346 333 328 323 323 322 321 322 323 321 318 317 319 320 324 332 331 328 328 326 320 322 326 318 310 308 304 303 302 299 299 299 298 296 292 293 299 303 309 314 310 307 311 306 300 298 298
324 321 325 324 323 325 324 323 325 326 327 334 340 340 339 344 344 332 321 315 319 317 314 319 322 320 317 314 314 318 321 325 328 323 313 311 314 322 328 320 311 314 315 310 308 308 306 301 298 296 292 288 286 288 295 299 297 301 305 297 292 295 299
318 315 314 314 313 314 316 316 317 319 322 329 336 339 337 339 342 332 320 312 316 313 310 317 320 321 320 315 313 316 317 322 325 315 297 304 323 322 325 322 313 319 323 320 319 319 316 312 310 308 304 297 289 287 288 290 291 293 290 285 286 290 296
310 307 306 305 305 306 308 310 312 314 317 321 328 335 336 336 338 331 321 313 313 312 310 314 317 317 318 315 313 314 316 320 322 311 290 317 333 321 322 320 313 317 323 323 324 324 323 322 322 320 318 315 309 303 298 295 292 285 277 278 281 281 280
305 303 303 301 299 300 303 305 306 309 313 315 320 331 336 334 331 327 321 312 308 308 307 309 312 312 312 313 314 315 315 315 317 317 316 330 327 321 320 314 312 318 323 323 324 324 323 324 323 322 322 320 317 315 309 301 292 283 277 275 272 273 275
302 299 299 299 298 297 299 304 306 307 310 313 316 324 330 328 323 322 319 310 305 304 302 303 307 306 309 313 314 314 313 311 312 318 329 333 329 319 310 310 314 320 321 320 321 319 317 317 316 317 317 316 316 317 312 305 299 291 284 276 270 267 270
303 297 295 298 299 298 300 304 308 309 310 312 315 319 321 319 317 317 315 308 301 298 299 301 303 304 307 311 311 310 312 312 311 313 319 323 321 313 310 312 315 315 313 313 313 312 310 311 313 313 315 316 317 315 310 309 306 299 291 283 277 271 267
305 300 299 300 300 301 300 302 305 309 312 314 316 316 315 313 312 310 307 303 297 294 296 299 301 304 306 308 307 306 306 307 305 306 308 308 307 308 312 313 310 308 308 307 305 304 303 305 309 313 314 315 316 316 317 317 314 309 303 293 285 282 277
306 303 300 300 300 301 301 300 301 305 311 316 318 318 317 317 313 307 302 299 294 293 296 297 300 304 304 301 300 301 302 305 305 303 302 303 305 307 310 309 305 304 302 298 296 296 297 300 306 309 311 314 318 322 323 323 320 317 313 303 293 289 285
303 302 300 298 299 301 300 301 301 302 308 315 318 319 320 321 320 316 311 302 295 296 299 298 297 301 301 298 297 299 301 303 303 302 303 305 307 308 308 307 303 300 296 292 292 292 293 298 302 307 310 315 319 322 321 323 325 320 314 311 305 297 289
298 298 299 299 300 301 301 301 303 304 310 318 320 319 319 319 317 317 315 309 304 304 302 294 291 294 297 297 297 298 299 299 300 301 303 305 306 305 303 301 297 292 287 284 285 288 290 294 298 303 309 313 315 315 316 323 332 327 319 316 313 303 293
295 294 295 296 298 298 298 297 298 303 312 318 317 316 314 312 309 310 310 310 312 312 302 293 291 293 294 296 298 299 300 299 299 299 298 298 300 300 297 296 295 287 276 274 279 285 289 293 297 301 305 309 311 310 310 315 323 323 319 319 316 305 296
290 289 291 293 293 294 295 295 294 298 304 308 308 306 304 302 302 303 302 302 307 307 300 291 290 290 291 294 298 299 301 300 298 297 296 296 297 295 291 291 289 278 273 278 289 292 292 296 300 302 305 308 308 307 307 311 315 316 314 312 308 299 293
281 283 286 287 287 287 288 288 291 295 299 302 302 300 298 296 296 297 298 299 302 300 291 284 286 287 289 293 295 296 299 300 297 295 293 292 291 288 285 282 277 275 281 291 297 296 295 297 300 301 304 307 307 308 308 309 311 311 308 304 299 293 289
284 281 280 281 283 285 285 285 289 294 298 299 299 298 296 296 296 296 296 298 300 294 282 279 283 284 286 290 291 293 296 295 291 288 289 289 286 281 279 278 274 277 288 296 298 295 293 294 296 299 302 304 305 306 306 306 307 307 302 297 293 289 286
304 292 282 278 280 284 287 288 290 293 296 296 295 295 295 294 294 294 294 294 291 281 274 276 279 280 284 286 285 288 291 289 283 281 282 282 280 279 277 271 267 279 289 294 293 290 290 291 292 294 296 298 299 300 299 300 301 300 298 295 291 287 284
314 311 303 290 283 280 282 286 290 292 293 292 291 292 293 292 291 291 291 286 277 271 272 274 274 275 279 280 280 283 284 280 275 276 277 274 272 275 274 270 274 283 289 288 281 280 284 285 285 289 291 291 292 292 291 291 292 293 292 291 288 286 286
313 316 315 310 300 290 285 287 290 292 291 290 289 289 290 292 292 288 280 270 263 265 270 271 271 273 275 276 277 278 276 271 270 272 273 272 271 271 271 273 277 282 284 279 275 278 280 279 281 285 287 287 288 287 285 285 286 286 286 285 285 287 287
308 311 315 316 311 301 293 291 292 292 290 288 287 288 291 293 290 283 272 262 258 259 263 266 269 273 275 274 273 271 267 266 268 269 270 271 271 272 273 276 278 277 276 276 278 278 276 278 283 283 281 283 284 282 280 281 281 279 280 281 283 286 287
302 307 313 315 314 310 303 297 293 292 291 288 285 285 286 284 278 272 268 266 263 262 264 267 269 271 271 270 268 266 264 264 265 266 268 270 272 273 274 275 273 273 275 278 278 276 276 279 282 282 280 280 280 277 275 276 276 275 276 279 281 284 287
Height
843 840 837 834 832 831 831 830 828 826 824 823 822 821 819 818 816 814 813 812 811 810 809 808 807 805 804 804 803 803 802 802 801 801 801 800 800 799 799 799 799 798 798 798 798 797 797 797 797 797 797 797 796 796 796 795 795 795 795 795 795 795 795
847 844 840 837 835 834 833 832 832 830 828 827 825 823 822 820 819 817 816 815 814 813 812 810 809 808 806 806 805 804 804 803 803 802 802 802 801 801 801 800 800 800 799 799 799 799 798 797 797 797 797 797 797 797 796 796 795 795 795 795 795 795 795
848 846 843 840 839 837 835 834 834 833 832 830 828 826 825 823 822 821 819 818 817 815 814 812 811 810 809 807 807 806 805 804 804 804 803 803 803 803 802 802 802 801 801 801 801 800 799 798 798 798 798 797 797 797 796 796 796 795 795 794 794 794 794
849 846 843 842 841 839 837 836 835 835 834 832 830 828 827 826 825 824 822 821 820 818 817 815 814 812 811 810 808 808 807 806 806 806 805 804 804 804 804 803 803 803 803 802 802 801 800 799 798 798 797 797 797 797 796 796 796 796 795 795 794 794 793
849 847 845 843 841 840 839 838 837 837 836 834 832 831 830 829 827 826 825 823 822 821 819 818 816 815 813 812 811 810 809 808 808 807 807 806 806 805 805 804 804 803 803 803 802 802 801 800 799 798 798 797 797 797 796 796 796 796 795 795 795 794 793
851 849 847 845 843 841 840 840 839 838 837 836 834 833 831 831 829 828 827 826 824 823 822 820 819 817 816 814 813 812 811 810 809 809 809 808 807 807 806 805 805 804 804 803 803 802 801 801 800 799 798 798 797 797 797 796 796 795 795 795 794 794 793
853 851 849 847 845 843 842 841 840 839 838 837 835 834 833 832 831 831 830 829 827 825 824 822 821 819 818 816 815 814 813 812 811 810 810 810 809 808 808 807 806 805 804 804 803 802 801 801 800 800 799 798 798 797 797 796 795 795 795 794 794 794 793
854 852 850 849 847 846 844 843 841 839 838 838 836 834 833 832 832 832 832 831 829 828 826 824 822 821 819 818 817 816 815 814 813 812 812 811 810 809 809 808 807 806 805 804 803 802 801 801 800 800 799 798 797 797 797 796 796 796 795 794 794 793 792
854 853 851 850 849 847 846 845 843 840 839 838 837 835 833 832 832 833 832 832 831 829 828 826 824 822 821 820 818 817 816 815 815 814 813 812 811 810 810 809 808 807 806 805 804 803 802 801 801 800 800 799 798 798 797 797 796 795 794 794 793 792 791
855 854 852 851 849 848 847 846 843 842 840 839 838 836 834 833 833 833 833 833 832 831 829 828 826 824 823 821 819 817 816 816 815 815 814 813 812 811 810 810 809 808 808 807 806 805 804 803 802 801 801 800 799 799 798 797 796 795 794 793 791 791 790
856 854 853 851 850 848 848 846 844 843 843 840 838 837 835 835 835 834 833 833 833 832 831 829 828 826 824 821 819 818 816 816 815 815 814 813 813 812 811 811 810 809 809 808 807 806 805 805 804 803 802 801 800 799 798 797 796 795 794 793 791 790 789
856 855 853 852 850 849 848 847 845 844 844 841 838 837 836 836 836 835 834 833 833 833 832 831 829 827 825 822 820 819 817 816 815 814 814 813 813 812 811 811 811 810 810 809 808 807 807 806 805 804 803 803 801 800 798 797 796 795 794 793 792 791 789
857 855 854 852 851 849 848 847 845 844 844 842 839 837 837 837 836 835 834 834 834 834 832 831 830 827 825 823 821 820 818 817 816 814 814 813 812 812 811 811 811 810 810 809 809 808 807 807 806 805 804 803 802 800 799 798 797 796 795 794 793 792 790
857 856 854 853 852 850 849 847 845 844 844 843 840 837 837 837 836 836 835 835 835 834 832 831 829 827 825 823 821 820 819 818 817 815 814 813 812 812 811 811 810 810 809 809 809 808 808 807 806 805 804 803 802 801 800 799 797 797 796 795 793 792 790
857 856 855 853 852 850 849 847 845 844 843 843 840 837 837 837 837 836 836 835 834 833 832 831 829 827 825 823 821 820 819 818 817 816 814 814 813 812 811 811 810 810 810 810 809 808 808 807 806 805 804 803 802 800 799 798 797 797 796 794 792 791 789
858 856 855 853 852 850 849 847 845 844 843 842 841 838 836 837 837 836 835 834 833 832 831 830 828 826 824 822 821 820 819 818 818 816 814 814 813 812 811 810 810 810 810 809 808 807 807 806 805 804 803 802 801 800 798 797 796 795 794 793 791 789 789
858 857 855 853 852 850 848 846 845 844 842 842 841 838 836 836 836 835 834 833 832 831 830 828 827 825 823 822 820 819 818 818 817 816 814 813 812 811 810 809 808 808 808 808 807 806 805 804 803 802 801 800 800 798 797 796 795 794 794 792 790 789 787
858 857 855 853 851 850 848 846 845 843 842 842 841 839 837 836 835 834 833 832 831 830 829 827 825 824 823 821 820 818 817 817 817 815 813 812 811 810 810 808 806 806 806 805 804 804 803 802 801 800 799 798 798 797 796 795 794 794 793 792 790 789 787
857 856 854 853 851 849 847 845 844 843 841 841 840 839 837 835 834 834 833 832 830 829 827 826 824 823 822 820 819 818 816 816 815 814 812 812 811 810 809 808 806 805 804 802 801 800 799 799 798 797 796 796 795 794 794 793 792 792 792 791 790 789 788
856 854 853 851 849 848 846 845 843 841 840 839 839 838 837 835 834 833 832 831 829 828 826 824 823 822 820 819 818 817 815 815 815 813 812 811 811 810 809 807 805 805 804 802 800 799 797 796 796 794 794 793 792 792 792 791 791 790 791 790 789 788 787
855 853 851 850 848 846 845 843 842 840 839 838 837 837 836 835 833 832 831 830 828 827 825 824 822 821 819 818 817 816 815 814 814 813 811 810 811 809 807 806 805 804 803 802 800 799 797 796 795 794 793 792 791 790 790 789 789 788 788 788 787 787 786
853 852 850 848 847 845 843 842 841 839 838 837 836 835 835 834 832 831 830 828 827 826 824 823 821 819 818 817 816 815 814 814 813 811 810 810 809 808 806 806 805 804 803 802 800 799 797 796 795 793 792 791 790 789 788 787 786 786 786 785 785 785 784
852 850 848 847 845 844 842 840 839 838 836 835 834 834 833 832 831 830 829 827 826 824 823 821 820 818 817 816 815 814 813 812 811 809 809 808 807 806 805 805 805 804 802 801 799 798 796 795 794 793 792 791 789 788 787 786 785 784 783 783 782 782 782
851 849 847 845 844 842 841 839 838 836 835 834 833 832 831 830 829 828 827 825 824 823 822 820 819 817 816 815 814 813 811 810 809 808 808 806 805 805 804 804 803 803 801 800 798 797 796 794 793 792 791 790 788 787 785 784 783 782 781 781 780 780 780
849 847 846 844 842 841 840 838 837 835 833 832 831 830 829 828 826 825 824 823 822 821 820 818 817 816 814 813 812 811 809 809 808 807 806 805 804 804 803 803 802 801 800 799 797 796 795 794 793 792 790 789 787 786 785 783 782 781 780 780 779 778 778
848 846 844 842 840 839 838 836 835 833 832 831 829 828 827 826 825 823 822 821 820 819 818 816 815 814 813 811 810 809 808 807 806 805 804 803 803 802 802 801 800 799 799 797 796 795 794 793 792 791 790 788 787 786 785 783 782 781 780 779 778 778 777
846 845 843 841 839 838 836 834 833 832 831 830 828 827 826 825 823 822 821 820 819 817 816 815 814 812 811 810 809 808 807 806 804 803 803 802 802 801 800 799 799 798 797 796 795 795 794 793 792 791 789 788 787 785 784 783 781 780 780 779 778 777 776
845 844 842 840 839 837 835 833 832 831 830 829 828 827 825 824 823 821 820 819 818 816 815 813 812 811 810 809 808 806 805 805 804 803 802 801 800 799 799 798 797 797 796 796 795 794 793 792 791 790 788 787 786 785 784 783 781 780 779 778 778 777 775
844 843 841 840 838 836 834 832 830 830 829 828 827 826 824 823 822 821 819 818 817 815 814 812 811 810 808 807 806 805 804 803 802 802 801 800 799 798 798 797 796 796 795 795 794 793 792 791 790 789 787 786 785 784 783 782 781 780 779 778 777 776 775
842 841 840 838 836 835 833 831 829 827 826 825 824 824 822 821 820 819 817 816 815 814 812 811 809 808 807 806 805 804 803 802 801 800 800 799 798 797 797 796 795 795 794 793 792 792 791 790 788 787 786 785 784 783 782 781 780 779 778 777 776 775 773
839 838 837 836 834 832 831 828 827 825 824 823 822 821 820 819 817 816 815 814 813 812 811 809 808 807 806 805 804 803 802 801 800 799 798 797 797 796 795 795 794 793 792 792 791 790 789 788 787 786 785 784 783 782 781 780 779 778 777 776 775 773 772
836 835 834 833 831 830 828 826 824 823 822 821 820 818 817 816 815 814 813 812 812 810 809 808 807 805 804 803 802 801 800 799 798 797 796 796 795 794 794 793 792 791 790 790 790 789 788 787 786 785 784 783 782 781 780 779 777 776 775 774 773 772 771
832 831 830 829 828 826 825 823 821 820 819 818 817 816 815 813 812 811 811 810 809 808 807 806 805 803 803 802 800 799 799 797 796 795 795 794 793 792 792 791 790 789 789 788 788 787 786 785 784 783 783 782 781 780 779 777 776 775 774 772 771 770 769
829 827 826 825 823 822 821 819 818 817 815 815 814 813 812 811 809 808 808 807 807 806 805 804 803 801 800 799 798 797 796 795 794 793 792 792 791 790 790 789 788 787 787 786 786 785 784 783 783 782 781 780 779 778 777 776 774 773 772 771 769 768 767
825 824 823 821 819 818 817 816 815 813 812 811 810 810 809 809 807 806 805 804 804 803 802 801 800 799 798 797 796 795 794 793 792 791 790 790 789 788 788 787 786 786 785 784 784 783 782 781 781 780 779 778 777 776 775 774 773 771 770 769 768 767 766
822 820 819 818 816 815 814 812 812 810 809 808 807 807 807 806 805 803 802 801 801 800 799 798 797 796 795 794 793 792 791 790 789 789 788 787 787 786 785 785 784 784 783 782 782 781 780 779 778 778 777 776 775 774 773 771 771 770 768 768 767 766 764